Satellite: NOAA-12
Catalog number: 21263
Epoch time: 12277.98224652
Element set: 0575
Inclination: 098.7239 deg
RA of node: 299.1096 deg
Eccentricity: 0.0012989
Arg of perigee: 244.9475 deg
Mean anomaly: 115.0358 deg
Mean motion: 14.25521257 rev/day
Decay rate: 9.1e-07 rev/day^2
Epoch rev: 11205
Checksum: 316
Satellite: MET-3/5
Catalog number: 21655
Epoch time: 12278.84666374
Element set: 519
Inclination: 082.5541 deg
RA of node: 074.7088 deg
Eccentricity: 0.0014010
Arg of perigee: 052.4248 deg
Mean anomaly: 307.8144 deg
Mean motion: 13.17037145 rev/day
Decay rate: 4.44e-06 rev/day^2
Epoch rev: 1632
Checksum: 289
Satellite: MET-2/21
Catalog number: 22782
Epoch time: 12278.63572699
Element set: 544
Inclination: 082.5459 deg
RA of node: 305.6772 deg
Eccentricity: 0.0021772
Arg of perigee: 202.1219 deg
Mean anomaly: 157.9018 deg
Mean motion: 13.83688840 rev/day
Decay rate: 3.9e-07 rev/day^2
Epoch rev: 96430
Checksum: 330
Satellite: OKEAN-4
Catalog number: 23317
Epoch time: 12277.93472133
Element set: 0055
Inclination: 082.5370 deg
RA of node: 289.5239 deg
Eccentricity: 0.0021612
Arg of perigee: 358.0933 deg
Mean anomaly: 002.0198 deg
Mean motion: 14.83983025 rev/day
Decay rate: 1.639e-05 rev/day^2
Epoch rev: 97093
Checksum: 306
Satellite: NOAA-14
Catalog number: 23455
Epoch time: 12277.88634289
Element set: 0057
Inclination: 098.8236 deg
RA of node: 359.9914 deg
Eccentricity: 0.0009920
Arg of perigee: 011.6506 deg
Mean anomaly: 348.4893 deg
Mean motion: 14.13873018 rev/day
Decay rate: 4.0e-08 rev/day^2
Epoch rev: 91615
Checksum: 331
Satellite: NOAA-15
Catalog number: 25338
Epoch time: 12277.88238655
Element set: 0427
Inclination: 098.7003 deg
RA of node: 263.8273 deg
Eccentricity: 0.0010893
Arg of perigee: 147.9559 deg
Mean anomaly: 212.2289 deg
Mean motion: 14.25126022 rev/day
Decay rate: 1.73e-06 rev/day^2
Epoch rev: 74833
Checksum: 320
Satellite: RESURS
Catalog number: 25394
Epoch time: 12277.93862878
Element set: 0215
Inclination: 098.3307 deg
RA of node: 260.5101 deg
Eccentricity: 0.0000844
Arg of perigee: 333.4510 deg
Mean anomaly: 026.6627 deg
Mean motion: 14.24299431 rev/day
Decay rate: 9.7e-07 rev/day^2
Epoch rev: 73988
Checksum: 310
Satellite: FENGYUN1
Catalog number: 25730
Epoch time: 12278.80276133
Element set: 709
Inclination: 098.8524 deg
RA of node: 235.9311 deg
Eccentricity: 0.0021168
Arg of perigee: 046.8409 deg
Mean anomaly: 313.4517 deg
Mean motion: 14.09771062 rev/day
Decay rate: 1.208e-05 rev/day^2
Epoch rev: 69005
Checksum: 293
Satellite: OKEAN-0
Catalog number: 25860
Epoch time: 12278.80521419
Element set: 752
Inclination: 097.9511 deg
RA of node: 239.2948 deg
Eccentricity: 0.0000573
Arg of perigee: 050.7483 deg
Mean anomaly: 309.3776 deg
Mean motion: 14.74327006 rev/day
Decay rate: 1.027e-05 rev/day^2
Epoch rev: 71072
Checksum: 301
Satellite: NOAA-16
Catalog number: 26536
Epoch time: 12277.82024913
Element set: 0918
Inclination: 099.0804 deg
RA of node: 321.5604 deg
Eccentricity: 0.0011322
Arg of perigee: 135.8578 deg
Mean anomaly: 224.3465 deg
Mean motion: 14.12789029 rev/day
Decay rate: 5.14e-06 rev/day^2
Epoch rev: 62037
Checksum: 299
Satellite: NOAA-17
Catalog number: 27453
Epoch time: 12277.89745229
Element set: 0861
Inclination: 098.3285 deg
RA of node: 299.4104 deg
Eccentricity: 0.0011258
Arg of perigee: 193.7303 deg
Mean anomaly: 166.3572 deg
Mean motion: 14.24489578 rev/day
Decay rate: 2.80e-06 rev/day^2
Epoch rev: 53423
Checksum: 335
Satellite: NOAA-18
Catalog number: 28654
Epoch time: 12277.93212952
Element set: 0343
Inclination: 099.0596 deg
RA of node: 236.9971 deg
Eccentricity: 0.0013788
Arg of perigee: 206.8582 deg
Mean anomaly: 153.1851 deg
Mean motion: 14.11709501 rev/day
Decay rate: 3.16e-06 rev/day^2
Epoch rev: 37990
Checksum: 330
Satellite: NOAA-19
Catalog number: 33591
Epoch time: 12277.89363777
Element set: 0531
Inclination: 098.8718 deg
RA of node: 216.3738 deg
Eccentricity: 0.0015018
Arg of perigee: 073.6916 deg
Mean anomaly: 286.5914 deg
Mean motion: 14.11395185 rev/day
Decay rate: 5.13e-06 rev/day^2
Epoch rev: 18834
Checksum: 343
/EX
SB KEPS @ AMSAT $ORB12278.M
Orbital Elements 12278.MISC
HR AMSAT ORBITAL ELEMENTS FOR MANNED AND MISCELLANEOUS SATELLITES
FROM WA5QGD FORT WORTH,TX October 4, 2012
BID: ORB12278.M
TO ALL RADIO AMATEURS BT
Satellite: HUBBLE
Catalog number: 20580
Epoch time: 12278.04747098
Element set: 82
Inclination: 028.4689 deg
RA of node: 150.9861 deg
Eccentricity: 0.0003504
Arg of perigee: 140.6891 deg
Mean anomaly: 219.3878 deg
Mean motion: 15.02858790 rev/day
Decay rate: 2.994e-05 rev/day^2
Epoch rev: 3112
Checksum: 314
Satellite: ISS
Catalog number: 25544
Epoch time: 12278.82122685
Element set: 411
Inclination: 051.6464 deg
RA of node: 296.5983 deg
Eccentricity: 0.0018412
Arg of perigee: 129.2636 deg
Mean anomaly: 226.5080 deg
Mean motion: 15.50516204 rev/day
Decay rate: 2.5880e-04 rev/day^2
Epoch rev: 79504
Checksum: 300
Satellite: CO-58
Catalog number: 28895
Epoch time: 12277.58896704
Element set: 0293
Inclination: 097.8956 deg
RA of node: 139.0109 deg
Eccentricity: 0.0017801
Arg of perigee: 166.8338 deg
Mean anomaly: 193.3335 deg
Mean motion: 14.60771178 rev/day
Decay rate: 1.193e-05 rev/day^2
Epoch rev: 36948
Checksum: 366
Satellite: FALCON
Catalog number: 30776
Epoch time: 12277.57582791
Element set: 0465
Inclination: 035.4319 deg
RA of node: 334.4308 deg
Eccentricity: 0.0002271
Arg of perigee: 230.7569 deg
Mean anomaly: 129.2947 deg
Mean motion: 15.08379938 rev/day
Decay rate: 7.006e-05 rev/day^2
Epoch rev: 30662
Checksum: 320
Satellite: MAST
Catalog number: 31126
Epoch time: 12278.48737979
Element set: 573
Inclination: 097.8758 deg
RA of node: 283.2094 deg
Eccentricity: 0.0094494
Arg of perigee: 129.5258 deg
Mean anomaly: 231.4330 deg
Mean motion: 14.54273894 rev/day
Decay rate: 8.17e-06 rev/day^2
Epoch rev: 29015
Checksum: 341
Satellite: CAPE1
Catalog number: 31130
Epoch time: 12277.58065381
Element set: 0584
Inclination: 097.8840 deg
RA of node: 278.6872 deg
Eccentricity: 0.0101656
Arg of perigee: 146.0750 deg
Mean anomaly: 214.6993 deg
Mean motion: 14.53088470 rev/day
Decay rate: 9.89e-06 rev/day^2
Epoch rev: 28951
Checksum: 333
Satellite: COMPASS
Catalog number: 32787
Epoch time: 12278.75781257
Element set: 427
Inclination: 097.7878 deg
RA of node: 337.6238 deg
Eccentricity: 0.0016065
Arg of perigee: 063.1355 deg
Mean anomaly: 297.1454 deg
Mean motion: 14.84429351 rev/day
Decay rate: 3.402e-05 rev/day^2
Epoch rev: 24006
Checksum: 323
Satellite: AAUSAT2
Catalog number: 32788
Epoch time: 12277.82643519
Element set: 418
Inclination: 097.7871 deg
RA of node: 337.1579 deg
Eccentricity: 0.0016017
Arg of perigee: 067.7267 deg
Mean anomaly: 292.5474 deg
Mean motion: 14.84780574 rev/day
Decay rate: 3.873e-05 rev/day^2
Epoch rev: 23995
Checksum: 362
Satellite: DO-64
Catalog number: 32789
Epoch time: 12278.63032313
Element set: 435
Inclination: 097.8019 deg
RA of node: 340.4099 deg
Eccentricity: 0.0015492
Arg of perigee: 059.5035 deg
Mean anomaly: 300.7605 deg
Mean motion: 14.86578684 rev/day
Decay rate: 6.492e-05 rev/day^2
Epoch rev: 24013
Checksum: 321
Satellite: CO-66
Catalog number: 32791
Epoch time: 12277.64660671
Element set: 0417
Inclination: 097.7879 deg
RA of node: 336.1889 deg
Eccentricity: 0.0016773
Arg of perigee: 068.6096 deg
Mean anomaly: 291.6921 deg
Mean motion: 14.83762654 rev/day
Decay rate: 2.953e-05 rev/day^2
Epoch rev: 23982
Checksum: 373
Satellite: RS-30
Catalog number: 32953
Epoch time: 12278.83414341
Element set: 201
Inclination: 082.5003 deg
RA of node: 226.9444 deg
Eccentricity: 0.0020392
Arg of perigee: 068.8941 deg
Mean anomaly: 291.4320 deg
Mean motion: 12.43028152 rev/day
Decay rate: 1.0e-07 rev/day^2
Epoch rev: 19818
Checksum: 265
Satellite: PHARMSAT
Catalog number: 35002
Epoch time: 12226.86484473
Element set: 78
Inclination: 040.4341 deg
RA of node: 050.6671 deg
Eccentricity: 0.0012079
Arg of perigee: 300.9773 deg
Mean anomaly: 059.0492 deg
Mean motion: 16.39309245 rev/day
Decay rate: 7.728342e-02 rev/day^2
Epoch rev: 18355
Checksum: 302
Satellite: METEOR-M
Catalog number: 35865
Epoch time: 12278.78544814
Element set: 839
Inclination: 098.6404 deg
RA of node: 330.9860 deg
Eccentricity: 0.0003330
Arg of perigee: 091.5801 deg
Mean anomaly: 268.5760 deg
Mean motion: 14.21870120 rev/day
Decay rate: -8.3e-07 rev/day^2
Epoch rev: 15817
Checksum: 306
Satellite: RS-38
Catalog number: 35869
Epoch time: 12278.71971612
Element set: 823
Inclination: 098.6377 deg
RA of node: 330.8980 deg
Eccentricity: 0.0005518
Arg of perigee: 092.3072 deg
Mean anomaly: 267.8729 deg
Mean motion: 14.22090410 rev/day
Decay rate: 8.7e-07 rev/day^2
Epoch rev: 15818
Checksum: 335
Satellite: JUGNU
Catalog number: 37839
Epoch time: 12277.78280963
Element set: 0241
Inclination: 019.9596 deg
RA of node: 060.3096 deg
Eccentricity: 0.0019206
Arg of perigee: 340.3503 deg
Mean anomaly: 019.6161 deg
Mean motion: 14.12085568 rev/day
Decay rate: 6.20e-06 rev/day^2
Epoch rev: 05061
Checksum: 291
Satellite: SRMSAT
Catalog number: 37841
Epoch time: 12278.69284855
Element set: 242
Inclination: 019.9699 deg
RA of node: 061.8374 deg
Eccentricity: 0.0012003
Arg of perigee: 310.6014 deg
Mean anomaly: 049.3366 deg
Mean motion: 14.10166470 rev/day
Decay rate: 2.64e-06 rev/day^2
Epoch rev: 5066
Checksum: 290
Satellite: RAX-2
Catalog number: 37853
Epoch time: 12277.86369432
Element set: 0311
Inclination: 101.7046 deg
RA of node: 007.5568 deg
Eccentricity: 0.0243446
Arg of perigee: 040.7818 deg
Mean anomaly: 321.1319 deg
Mean motion: 14.80977820 rev/day
Decay rate: 7.216e-05 rev/day^2
Epoch rev: 05048
Checksum: 302
